SCP
-0 -0 -0 -0 -0 -0 -0 -0 -0 0 0 0 0 0 0 0 0 -0 -0 -0 -0 -0 0 0 0 0 0 0 0 0 0 0 0 -0 -0 -0 -0 -0 -0 -0 -0 0 -0
0 -0 -0 -0 -0 -0 -0 -0 -0 -0 -0 0 0 0 0 0 -0 -0 -0 -0 0 0 -0 0 0 0 0 0 0 0 0 0 0 0 -0 -0 -0 -0 -0 -0 -0 -0 -0
0 -0 -0 -0 -0 -0 -0 -0 -0 -0 -0 -0 0 0 0 0 0 0 -0 0 -0 -0 0 -0 0 0 0 0 0 0 0 0 0 0 0 0 0 -0 -0 -0 -0 -0 -0
0 0 0 -0 -0 -0 -0 -0 -0 -0 -0 -0 -0 -0 -0 0 0 0 0 -0 -0 -0 0 0 0 0 0 0 0 0 0 0 0 0 0 0 0 0 0 -0 -0 -0 -0
0 0 0 -0 -0 -0 -0 -0 -0 -0 -0 -0 -0 -0 -0 -0 -0 0 0 0 -0 0 0 0 0 0 0 0 0 0 0 0 0 0 0 0 0 0 0 0 0 0 0
0 0 0 -0 -0 -0 -0 -0 -0 -0 -0 -0 -0 -0 -0 -0 -0 -0 0 0 0 0 0 0 0 0 0 0 0 0 0 0 0 0 0 0 0 0 0 0 0 0 0
0 0 0 -0 -0 -0 -0 -0 -0 -0 -0 -0 -0 -0 -0 -0 0 0 0 0 0 0 0 0 0 0 0 0 0 0 0 0 0 0 0 0 0 0 0 0 0 0 0
0 0 0 0 0 0 -0 -0 -0 -0 -0 -0 -0 -0 -0 0 0 0 0 0 0 0 0 0 0 0 0 0 0 0 0 0 0 0 0 0 0 0 0 0 0 0 0
0 0 0 0 0 0 0 0 0 -0 -0 -0 -0 0 0 0 0 0 0 0 0 0 0 0 0 0 0 0 0 0 0 0 0 0 0 0 0 0 0 0 0 0 0
0 0 0 0 0 0 0 0 0 0 0 0 0 0 0 0 0 0 0 0 0 0 0 0 0 0 0 0 0 0 0 0 0 0 0 0 0 0 0 0 0 0 0
0 0 0 0 0 0 0 0 0 0 0 0 0 0 0 0 0 0 0 0 0 0 0 0 0 0 0 0 0 0 0 0 0 0 0 0 0 0 0 0 0 0 0
0 0 0 0 0 0 0 0 0 0 0 0 0 0 0 0 0 0 0 0 0 0 0 0 0 0 0 0 0 0 0 0 0 0 0 0 0 0 0 0 0 0 0
0 0 0 0 0 0 0 0 0 0 0 0 0 0 0 0 0 0 0 0 0 0 0 0 0 0 0 0 0 0 0 0 0 0 0 0 0 0 0 0 0 0 0
0 0 0 0 0 0 0 0 0 0 0 0 0 0 0 0 0 0 0 0 0 0 0 0 0 0 0 0 0 0 0 0 0 0 0 0 0 0 0 0 0 0 0
0 0 0 0 0 0 0 0 0 0 0 0 0 0 0 0 0 0 0 0 0 0 0 0 0 0 0 0 0 0 0 0 0 0 0 0 0 0 0 0 0 0 0
0 0 0 0 0 0 0 0 0 0 0 0 0 0 0 0 0 0 0 0 0 0 0 0 0 0 0 0 0 0 0 0 0 0 0 0 0 0 0 0 0 0 0
0 0 0 0 0 0 0 0 0 0 0 0 0 0 0 0 0 0 0 0 0 0 0 0 0 0 0 0 0 0 0 0 0 0 0 0 0 0 0 0 0 0 0
0 0 0 0 0 0 0 0 0 0 0 0 0 0 0 0 0 0 0 0 0 0 0 0 0 0 0 0 0 0 0 0 0 0 0 0 0 0 0 0 0 0 0
0 0 0 0 0 0 0 0 0 0 0 0 0 0 0 0 0 0 0 0 0 0 0 0 0 0 0 0 0 0 0 0 0 0 0 0 0 0 0 0 0 0 0
0 0 0 0 0 0 0 0 0 0 0 0 0 0 0 0 0 0 0 0 0 0 0 0 0 0 0 0 0 0 0 0 0 0 0 0 0 0 0 0 0 0 0
0 0 0 0 0 0 0 0 0 0 0 0 0 0 0 0 0 0 0 0 0 0 0 0 0 0 0 0 0 0 0 0 0 0 0 0 0 0 0 0 0 0 0
0 0 0 0 0 0 0 0 0 0 0 0 0 0 0 0 0 0 0 0 0 0 0 0 0 0 0 0 0 0 0 0 0 0 0 0 0 0 0 0 0 0 0
0 0 0 0 0 0 0 0 0 0 0 0 0 0 0 0 0 0 0 0 0 0 0 0 0 0 0 0 0 0 0 0 0 0 0 0 0 0 0 0 0 0 0
0 0 0 0 0 0 0 0 0 0 0 0 0 0 0 0 0 0 0 0 0 0 0 0 0 0 0 0 0 0 0 0 0 -0 0 0 0 0 0 0 0 0 0
0 0 0 0 0 0 0 0 0 0 -0 -0 0 0 0 0 0 0 0 0 0 0 0 0 0 0 0 0 0 0 0 0 0 0 0 -0 0 0 0 0 0 0 0
0 0 0 0 0 0 0 0 0 0 0 0 0 0 0 0 0 0 0 0 0 0 0 0 0 0 0 0 0 0 0 0 0 0 0 0 0 0 0 0 0 0 0
Wind_Speed_500mb
14 38 37 38 34 33 33 30 26 24 19 13 8 7 7 5 6 6 7 3 9 12 10 11 11 8 6 6 7 10 11 8 8 10 13 14 14 16 18 19 22 21 15
12 33 37 35 33 28 30 28 27 24 18 14 11 7 4 4 8 7 3 7 11 10 4 8 9 9 7 5 4 3 3 4 4 6 6 6 8 8 10 13 16 22 19
10 27 35 34 31 28 26 25 24 22 18 13 9 7 7 7 7 6 8 11 14 8 3 5 7 6 7 5 4 4 3 2 1 4 5 4 2 1 2 4 8 9 14
8 21 31 34 31 27 25 24 24 19 17 14 12 11 10 10 10 9 9 12 14 12 5 1 3 3 3 2 1 2 2 2 2 3 4 7 5 5 3 5 6 8 10
2 13 27 32 32 30 27 21 18 20 18 16 16 15 14 14 13 8 7 5 18 17 12 4 2 2 2 4 4 4 4 6 4 4 3 5 7 9 12 5 6 8 9
0 6 19 31 33 32 28 24 22 20 20 22 20 19 16 12 12 14 17 22 27 22 15 8 7 7 8 10 12 10 9 10 10 8 8 9 7 8 16 16 12 10 8
3 6 11 25 33 35 33 28 25 23 23 21 16 20 19 17 17 17 22 28 30 28 15 10 10 11 11 12 14 14 12 14 15 13 14 15 17 18 19 19 19 13 8
5 4 10 16 28 34 36 34 31 28 27 27 20 24 20 20 18 18 15 21 29 21 15 12 11 12 12 13 15 15 14 15 16 17 17 19 20 21 21 19 15 13 10
7 5 8 13 22 31 37 39 37 35 33 31 24 27 25 26 22 19 17 17 18 18 17 12 12 13 12 10 10 9 9 10 12 13 14 16 18 19 18 17 16 14 13
9 8 11 16 21 27 34 39 40 38 37 35 28 29 30 31 28 23 19 19 19 20 17 15 14 13 11 10 10 8 8 9 11 12 12 14 15 16 17 18 19 18 17
17 18 20 21 22 26 32 37 40 40 39 37 36 35 35 36 35 29 24 23 22 21 19 18 17 15 13 14 13 13 12 13 14 15 16 16 17 18 17 18 19 20 19
21 22 24 28 27 26 29 34 38 40 40 40 40 39 37 37 38 36 30 29 27 25 24 23 21 18 18 17 17 16 16 15 16 17 17 17 18 19 19 20 21 22 21
17 19 26 29 31 32 32 32 33 35 38 40 39 38 40 41 40 39 36 33 30 30 28 26 24 22 23 23 22 21 20 19 18 18 17 17 17 17 18 19 21 23 23
13 17 19 26 29 33 34 33 32 32 36 38 37 41 43 40 37 38 39 37 36 34 35 32 28 26 27 28 28 26 24 22 22 21 20 19 18 18 18 19 20 22 21
20 21 23 25 31 32 34 32 28 27 27 32 40 39 43 40 38 39 40 39 38 39 41 34 32 30 29 31 33 32 31 29 27 25 23 22 21 20 19 19 21 22 22
20 19 21 26 30 35 35 33 29 25 22 21 23 36 43 42 40 39 42 37 40 42 42 40 36 33 33 34 35 37 36 35 34 32 29 27 24 23 22 22 22 24 24
26 28 22 16 19 22 33 34 31 26 21 16 12 13 19 27 31 26 36 40 38 41 42 44 40 38 36 38 37 39 41 42 40 39 37 34 32 29 27 26 26 26 23
21 24 28 24 15 5 17 26 21 18 15 12 12 14 19 22 28 30 32 34 36 38 40 42 40 39 35 38 42 43 44 45 45 44 43 41 39 36 34 32 30 30 27
23 23 23 22 16 10 15 18 17 15 13 15 18 17 17 21 21 23 24 27 34 38 37 34 36 38 38 40 43 46 47 48 48 48 48 48 47 43 40 39 37 34 31
25 29 31 32 31 31 26 22 20 11 6 2 6 12 17 18 19 21 20 24 25 26 28 41 33 38 38 40 44 46 48 51 53 53 53 55 54 49 47 45 43 40 38
31 31 35 36 37 27 23 21 19 12 10 6 10 16 17 20 20 20 19 20 21 20 25 22 28 29 27 33 41 48 49 52 53 54 56 58 57 56 55 53 50 47 44
59 62 61 59 50 43 34 30 24 20 15 10 12 11 15 18 18 18 22 27 28 29 33 33 35 31 32 32 37 45 40 51 32 21 28 32 47 59 62 59 57 54 51
61 63 63 62 59 54 51 44 34 27 20 13 7 6 10 11 14 19 24 27 28 28 33 38 42 42 39 37 38 31 16 14 47 53 41 47 38 26 37 51 57 59 56
54 52 52 50 47 44 38 35 29 30 26 26 19 16 12 10 10 11 12 15 17 19 25 30 31 36 45 47 45 38 37 42 35 46 56 62 63 58 57 43 37 35 40
40 37 36 37 37 36 33 29 27 28 30 26 22 18 19 20 18 18 17 15 13 15 17 18 17 19 24 30 37 44 48 47 46 52 71 68 70 71 69 68 65 61 57
28 26 25 28 32 30 27 24 23 23 24 19 20 19 20 22 22 24 25 27 28 28 28 27 27 26 25 25 27 31 36 43 51 53 62 78 81 85 80 80 80 76 74
Wind_Direction_500mb
183 180 176 173 175 178 180 185 185 182 179 175 169 166 150 128 96 116 126 71 6 360 27 54 58 74 84 96 112 139 134 106 98 95 92 91 82 88 93 93 87 76 78
187 185 181 179 182 179 179 183 185 186 192 198 197 202 199 148 163 185 243 318 327 328 15 66 77 82 86 88 88 96 89 129 87 68 72 86 85 76 84 103 106 97 80
164 186 185 187 186 189 190 194 198 204 207 212 221 230 229 228 234 244 288 317 332 333 17 67 79 87 98 119 143 152 170 188 359 348 4 23 61 61 109 132 142 131 116
151 187 193 191 194 197 205 208 210 218 216 224 231 232 235 239 243 253 290 312 315 343 288 346 87 93 98 143 185 163 206 245 320 347 20 28 25 5 267 227 199 182 170
130 188 201 200 201 204 212 208 206 210 224 238 247 251 243 236 233 242 249 257 299 329 318 273 278 276 278 275 268 258 265 274 283 304 322 353 21 12 28 295 252 227 226
92 182 201 208 210 213 223 219 223 224 232 237 236 245 249 236 246 253 261 277 288 307 303 292 283 275 275 275 273 267 272 277 277 281 286 293 295 299 321 333 347 272 238
6 209 206 213 217 222 227 233 235 237 237 235 229 236 253 249 256 273 283 281 285 296 295 294 288 287 285 280 276 275 270 272 275 279 280 285 291 295 304 314 322 309 273
352 243 232 227 226 229 233 236 239 241 237 237 238 224 237 262 271 289 311 299 285 291 307 301 293 289 288 284 279 275 273 271 272 272 275 278 283 290 302 311 313 307 291
356 313 263 247 237 234 235 239 243 243 242 243 234 231 247 265 275 277 284 310 319 309 310 302 295 294 294 286 277 270 268 267 270 274 282 283 288 296 303 306 303 299 294
320 303 274 263 249 241 239 239 241 243 243 243 241 242 252 266 274 276 279 300 311 320 311 306 300 297 294 283 282 289 292 290 287 287 289 288 291 294 300 300 301 301 299
285 296 285 270 262 256 247 243 244 244 243 242 245 249 254 262 271 274 281 291 296 306 312 307 297 289 282 276 280 285 290 292 293 297 297 295 296 299 299 300 299 298 296
275 272 272 273 270 265 260 251 246 245 245 243 242 247 251 260 272 280 279 279 283 294 303 304 295 290 275 267 268 273 278 283 289 293 294 297 299 301 301 300 299 297 296
303 274 253 250 256 263 262 259 255 249 244 241 242 244 251 258 265 263 267 274 281 285 290 292 291 280 269 265 265 265 269 276 278 279 282 286 290 293 296 297 298 299 302
317 313 279 256 250 247 256 258 259 257 253 253 247 248 249 253 259 261 265 274 279 284 288 284 287 278 270 265 263 264 266 267 271 276 279 282 286 290 292 293 295 299 302
312 300 292 277 258 247 240 246 254 259 264 261 259 247 253 259 262 266 267 272 276 287 294 291 284 280 272 265 263 263 264 265 265 266 269 273 278 283 286 292 297 303 306
314 303 298 294 277 252 237 232 244 258 272 283 280 259 252 262 266 270 264 272 279 287 296 298 286 282 278 273 269 269 270 271 271 271 271 273 276 282 289 293 296 304 307
331 332 327 308 296 268 234 222 232 249 265 285 305 296 277 272 276 279 263 265 279 287 295 296 291 285 286 286 281 276 274 274 274 276 276 277 279 282 285 287 288 291 294
350 344 350 348 333 295 216 212 221 238 251 265 272 277 271 266 266 267 267 276 281 285 292 292 295 287 288 295 295 289 281 276 274 273 272 274 275 275 277 280 283 285 288
27 25 27 31 33 62 126 156 178 194 211 242 258 267 268 260 266 271 282 284 279 283 287 284 300 292 289 294 298 294 289 283 279 274 271 269 269 271 273 276 277 277 276
55 56 57 63 69 79 92 107 116 133 180 235 312 296 282 282 283 278 275 275 276 273 280 283 278 281 286 291 295 295 290 287 285 281 276 272 271 269 268 268 269 271 272
80 78 78 81 79 82 84 83 83 75 72 34 343 330 310 306 298 293 295 297 304 300 286 296 285 280 288 300 304 294 292 293 287 283 280 278 274 270 267 265 266 265 265
79 77 74 73 73 73 71 67 65 58 60 48 33 356 336 333 328 322 309 310 308 307 298 300 295 306 298 299 306 313 314 300 301 316 288 283 279 271 267 266 266 265 264
80 75 71 68 66 65 66 67 66 64 65 68 68 13 359 336 313 303 296 293 300 310 311 312 312 311 307 300 297 296 312 294 301 290 276 292 299 292 282 279 276 272 269
78 73 66 61 64 67 69 70 70 68 67 70 62 51 41 22 4 348 328 313 305 302 290 288 292 300 301 298 290 290 289 290 295 300 287 281 283 277 287 287 287 286 278
81 71 59 54 61 64 57 56 57 62 69 73 69 61 52 45 42 37 27 14 353 342 335 324 312 305 297 293 298 294 286 286 288 290 297 295 284 281 279 278 276 274 274
88 76 70 64 61 56 51 60 60 68 74 68 61 46 38 31 26 26 23 18 16 11 8 3 351 335 322 310 296 288 289 290 287 286 288 292 294 291 285 281 279 277 275
Wind_Speed_850mb
14 38 37 38 34 33 33 30 26 24 19 13 8 7 7 5 6 6 7 3 9 12 10 11 11 8 6 6 7 10 11 8 8 10 13 14 14 16 18 19 22 21 15
12 33 37 35 33 28 30 28 27 24 18 14 11 7 4 4 8 7 3 7 11 10 4 8 9 9 7 5 4 3 3 4 4 6 6 6 8 8 10 13 16 22 19
10 27 35 34 31 28 26 25 24 22 18 13 9 7 7 7 7 6 8 11 14 8 3 5 7 6 7 5 4 4 3 2 1 4 5 4 2 1 2 4 8 9 14
8 21 31 34 31 27 25 24 24 19 17 14 12 11 10 10 10 9 9 12 14 12 5 1 3 3 3 2 1 2 2 2 2 3 4 7 5 5 3 5 6 8 10
2 13 27 32 32 30 27 21 18 20 18 16 16 15 14 14 13 8 7 5 18 17 12 4 2 2 2 4 4 4 4 6 4 4 3 5 7 9 12 5 6 8 9
0 6 19 31 33 32 28 24 22 20 20 22 20 19 16 12 12 14 17 22 27 22 15 8 7 7 8 10 12 10 9 10 10 8 8 9 7 8 16 16 12 10 8
3 6 11 25 33 35 33 28 25 23 23 21 16 20 19 17 17 17 22 28 30 28 15 10 10 11 11 12 14 14 12 14 15 13 14 15 17 18 19 19 19 13 8
5 4 10 16 28 34 36 34 31 28 27 27 20 24 20 20 18 18 15 21 29 21 15 12 11 12 12 13 15 15 14 15 16 17 17 19 20 21 21 19 15 13 10
7 5 8 13 22 31 37 39 37 35 33 31 24 27 25 26 22 19 17 17 18 18 17 12 12 13 12 10 10 9 9 10 12 13 14 16 18 19 18 17 16 14 13
9 8 11 16 21 27 34 39 40 38 37 35 28 29 30 31 28 23 19 19 19 20 17 15 14 13 11 10 10 8 8 9 11 12 12 14 15 16 17 18 19 18 17
17 18 20 21 22 26 32 37 40 40 39 37 36 35 35 36 35 29 24 23 22 21 19 18 17 15 13 14 13 13 12 13 14 15 16 16 17 18 17 18 19 20 19
21 22 24 28 27 26 29 34 38 40 40 40 40 39 37 37 38 36 30 29 27 25 24 23 21 18 18 17 17 16 16 15 16 17 17 17 18 19 19 20 21 22 21
17 19 26 29 31 32 32 32 33 35 38 40 39 38 40 41 40 39 36 33 30 30 28 26 24 22 23 23 22 21 20 19 18 18 17 17 17 17 18 19 21 23 23
13 17 19 26 29 33 34 33 32 32 36 38 37 41 43 40 37 38 39 37 36 34 35 32 28 26 27 28 28 26 24 22 22 21 20 19 18 18 18 19 20 22 21
20 21 23 25 31 32 34 32 28 27 27 32 40 39 43 40 38 39 40 39 38 39 41 34 32 30 29 31 33 32 31 29 27 25 23 22 21 20 19 19 21 22 22
20 19 21 26 30 35 35 33 29 25 22 21 23 36 43 42 40 39 42 37 40 42 42 40 36 33 33 34 35 37 36 35 34 32 29 27 24 23 22 22 22 24 24
26 28 22 16 19 22 33 34 31 26 21 16 12 13 19 27 31 26 36 40 38 41 42 44 40 38 36 38 37 39 41 42 40 39 37 34 32 29 27 26 26 26 23
21 24 28 24 15 5 17 26 21 18 15 12 12 14 19 22 28 30 32 34 36 38 40 42 40 39 35 38 42 43 44 45 45 44 43 41 39 36 34 32 30 30 27
23 23 23 22 16 10 15 18 17 15 13 15 18 17 17 21 21 23 24 27 34 38 37 34 36 38 38 40 43 46 47 48 48 48 48 48 47 43 40 39 37 34 31
25 29 31 32 31 31 26 22 20 11 6 2 6 12 17 18 19 21 20 24 25 26 28 41 33 38 38 40 44 46 48 51 53 53 53 55 54 49 47 45 43 40 38
31 31 35 36 37 27 23 21 19 12 10 6 10 16 17 20 20 20 19 20 21 20 25 22 28 29 27 33 41 48 49 52 53 54 56 58 57 56 55 53 50 47 44
59 62 61 59 50 43 34 30 24 20 15 10 12 11 15 18 18 18 22 27 28 29 33 33 35 31 32 32 37 45 40 51 32 21 28 32 47 59 62 59 57 54 51
61 63 63 62 59 54 51 44 34 27 20 13 7 6 10 11 14 19 24 27 28 28 33 38 42 42 39 37 38 31 16 14 47 53 41 47 38 26 37 51 57 59 56
54 52 52 50 47 44 38 35 29 30 26 26 19 16 12 10 10 11 12 15 17 19 25 30 31 36 45 47 45 38 37 42 35 46 56 62 63 58 57 43 37 35 40
40 37 36 37 37 36 33 29 27 28 30 26 22 18 19 20 18 18 17 15 13 15 17 18 17 19 24 30 37 44 48 47 46 52 71 68 70 71 69 68 65 61 57
28 26 25 28 32 30 27 24 23 23 24 19 20 19 20 22 22 24 25 27 28 28 28 27 27 26 25 25 27 31 36 43 51 53 62 78 81 85 80 80 80 76 74
Wind_Direction_850mb
183 180 176 173 175 178 180 185 185 182 179 175 169 166 150 128 96 116 126 71 6 360 27 54 58 74 84 96 112 139 134 106 98 95 92 91 82 88 93 93 87 76 78
187 185 181 179 182 179 179 183 185 186 192 198 197 202 199 148 163 185 243 318 327 328 15 66 77 82 86 88 88 96 89 129 87 68 72 86 85 76 84 103 106 97 80
164 186 185 187 186 189 190 194 198 204 207 212 221 230 229 228 234 244 288 317 332 333 17 67 79 87 98 119 143 152 170 188 359 348 4 23 61 61 109 132 142 131 116
151 187 193 191 194 197 205 208 210 218 216 224 231 232 235 239 243 253 290 312 315 343 288 346 87 93 98 143 185 163 206 245 320 347 20 28 25 5 267 227 199 182 170
130 188 201 200 201 204 212 208 206 210 224 238 247 251 243 236 233 242 249 257 299 329 318 273 278 276 278 275 268 258 265 274 283 304 322 353 21 12 28 295 252 227 226
92 182 201 208 210 213 223 219 223 224 232 237 236 245 249 236 246 253 261 277 288 307 303 292 283 275 275 275 273 267 272 277 277 281 286 293 295 299 321 333 347 272 238
6 209 206 213 217 222 227 233 235 237 237 235 229 236 253 249 256 273 283 281 285 296 295 294 288 287 285 280 276 275 270 272 275 279 280 285 291 295 304 314 322 309 273
352 243 232 227 226 229 233 236 239 241 237 237 238 224 237 262 271 289 311 299 285 291 307 301 293 289 288 284 279 275 273 271 272 272 275 278 283 290 302 311 313 307 291
356 313 263 247 237 234 235 239 243 243 242 243 234 231 247 265 275 277 284 310 319 309 310 302 295 294 294 286 277 270 268 267 270 274 282 283 288 296 303 306 303 299 294
320 303 274 263 249 241 239 239 241 243 243 243 241 242 252 266 274 276 279 300 311 320 311 306 300 297 294 283 282 289 292 290 287 287 289 288 291 294 300 300 301 301 299
285 296 285 270 262 256 247 243 244 244 243 242 245 249 254 262 271 274 281 291 296 306 312 307 297 289 282 276 280 285 290 292 293 297 297 295 296 299 299 300 299 298 296
275 272 272 273 270 265 260 251 246 245 245 243 242 247 251 260 272 280 279 279 283 294 303 304 295 290 275 267 268 273 278 283 289 293 294 297 299 301 301 300 299 297 296
303 274 253 250 256 263 262 259 255 249 244 241 242 244 251 258 265 263 267 274 281 285 290 292 291 280 269 265 265 265 269 276 278 279 282 286 290 293 296 297 298 299 302
317 313 279 256 250 247 256 258 259 257 253 253 247 248 249 253 259 261 265 274 279 284 288 284 287 278 270 265 263 264 266 267 271 276 279 282 286 290 292 293 295 299 302
312 300 292 277 258 247 240 246 254 259 264 261 259 247 253 259 262 266 267 272 276 287 294 291 284 280 272 265 263 263 264 265 265 266 269 273 278 283 286 292 297 303 306
314 303 298 294 277 252 237 232 244 258 272 283 280 259 252 262 266 270 264 272 279 287 296 298 286 282 278 273 269 269 270 271 271 271 271 273 276 282 289 293 296 304 307
331 332 327 308 296 268 234 222 232 249 265 285 305 296 277 272 276 279 263 265 279 287 295 296 291 285 286 286 281 276 274 274 274 276 276 277 279 282 285 287 288 291 294
350 344 350 348 333 295 216 212 221 238 251 265 272 277 271 266 266 267 267 276 281 285 292 292 295 287 288 295 295 289 281 276 274 273 272 274 275 275 277 280 283 285 288
27 25 27 31 33 62 126 156 178 194 211 242 258 267 268 260 266 271 282 284 279 283 287 284 300 292 289 294 298 294 289 283 279 274 271 269 269 271 273 276 277 277 276
55 56 57 63 69 79 92 107 116 133 180 235 312 296 282 282 283 278 275 275 276 273 280 283 278 281 286 291 295 295 290 287 285 281 276 272 271 269 268 268 269 271 272
80 78 78 81 79 82 84 83 83 75 72 34 343 330 310 306 298 293 295 297 304 300 286 296 285 280 288 300 304 294 292 293 287 283 280 278 274 270 267 265 266 265 265
79 77 74 73 73 73 71 67 65 58 60 48 33 356 336 333 328 322 309 310 308 307 298 300 295 306 298 299 306 313 314 300 301 316 288 283 279 271 267 266 266 265 264
80 75 71 68 66 65 66 67 66 64 65 68 68 13 359 336 313 303 296 293 300 310 311 312 312 311 307 300 297 296 312 294 301 290 276 292 299 292 282 279 276 272 269
78 73 66 61 64 67 69 70 70 68 67 70 62 51 41 22 4 348 328 313 305 302 290 288 292 300 301 298 290 290 289 290 295 300 287 281 283 277 287 287 287 286 278
81 71 59 54 61 64 57 56 57 62 69 73 69 61 52 45 42 37 27 14 353 342 335 324 312 305 297 293 298 294 286 286 288 290 297 295 284 281 279 278 276 274 274
88 76 70 64 61 56 51 60 60 68 74 68 61 46 38 31 26 26 23 18 16 11 8 3 351 335 322 310 296 288 289 290 287 286 288 292 294 291 285 281 279 277 275